When you browse on this site, cookies collect data to enhance your experience and personalize the content and advertising you see.
Visit our Privacy Policy to learn more. By continuing to use the site, you agree to this use of cookies and data.
  • In France
  • List of Countries
  • For 7 days
  • Water Temperature
  • Weather Map
  • Weather Widgets
  • user-avatar
    Login

    Hourly Weather El-Fula

    Today, 22 August, Thursday

    Time Temperature Precipitation Wind Pressure Humidity
    00:00 +26°C° 2.3 mm 4 mps 712 mmHg 80%
    01:00 +26°C° 2.3 mm 4 mps 712 mmHg 83%
    02:00 +25°C° 0 mm 3 mps 712 mmHg 86%
    03:00 +25°C° 0.4 mm 3 mps 712 mmHg 86%
    04:00 +25°C° 0.4 mm 2 mps 712 mmHg 86%
    05:00 +25°C° 0.4 mm 2 mps 712 mmHg 86%
    06:00 +26°C° 0.1 mm 2 mps 712 mmHg 84%
    07:00 +26°C° 0.1 mm 3 mps 713 mmHg 82%
    08:00 +27°C° 0 mm 3 mps 713 mmHg 82%
    09:00 +26°C° 3.6 mm 3 mps 713 mmHg 83%
    10:00 +26°C° 3.6 mm 3 mps 714 mmHg 85%
    11:00 +25°C° 3.6 mm 3 mps 714 mmHg 86%
    12:00 +27°C° 0.2 mm 3 mps 713 mmHg 77%
    13:00 +28°C° 0.2 mm 3 mps 712 mmHg 69%
    14:00 +30°C° 0.2 mm 3 mps 712 mmHg 60%
    15:00 +30°C° 0 mm 2 mps 712 mmHg 59%
    16:00 +30°C° 0 mm 1 mps 711 mmHg 57%
    17:00 +30°C° 0 mm 1 mps 711 mmHg 56%
    18:00 +29°C° 0.3 mm 2 mps 712 mmHg 62%
    19:00 +28°C° 0.3 mm 3 mps 712 mmHg 68%
    20:00 +27°C° 0.3 mm 4 mps 712 mmHg 73%
    21:00 +27°C° 0.1 mm 3 mps 712 mmHg 75%
    22:00 +27°C° 0.1 mm 3 mps 713 mmHg 78%
    23:00 +27°C° 0.1 mm 2 mps 713 mmHg 80%

    Tomorrow, 23 August, Friday

    Time Temperature Precipitation Wind Pressure Humidity
    00:00 +26°C° 0 mm 3 mps 713 mmHg 81%
    01:00 +26°C° 0 mm 3 mps 712 mmHg 82%
    02:00 +26°C° 0 mm 4 mps 712 mmHg 83%
    03:00 +26°C° 0 mm 4 mps 712 mmHg 83%
    04:00 +26°C° 0 mm 4 mps 712 mmHg 84%
    05:00 +25°C° 0 mm 5 mps 712 mmHg 84%
    06:00 +26°C° 0 mm 4 mps 712 mmHg 82%
    07:00 +26°C° 0 mm 3 mps 713 mmHg 79%
    08:00 +26°C° 0 mm 3 mps 713 mmHg 77%
    09:00 +27°C° 0 mm 4 mps 714 mmHg 73%
    10:00 +28°C° 0 mm 4 mps 714 mmHg 70%
    11:00 +29°C° 0 mm 5 mps 715 mmHg 66%
    12:00 +29°C° 0 mm 4 mps 714 mmHg 65%
    13:00 +30°C° 0 mm 3 mps 713 mmHg 64%
    14:00 +30°C° 0 mm 2 mps 713 mmHg 63%
    15:00 +30°C° 0 mm 2 mps 712 mmHg 62%
    16:00 +30°C° 0 mm 2 mps 712 mmHg 61%
    17:00 +30°C° 0 mm 1 mps 712 mmHg 59%
    18:00 +29°C° 0.8 mm 2 mps 712 mmHg 64%
    19:00 +29°C° 0.8 mm 2 mps 713 mmHg 68%
    20:00 +28°C° 0.8 mm 3 mps 713 mmHg 72%
    21:00 +27°C° 0.1 mm 3 mps 713 mmHg 74%
    22:00 +27°C° 0.1 mm 2 mps 713 mmHg 77%
    23:00 +26°C° 0.1 mm 2 mps 713 mmHg 79%

    Day after tomorrow, 24 August, Saturday

    Time Temperature Precipitation Wind Pressure Humidity
    00:00 +26°C° 0 mm 2 mps 713 mmHg 80%
    01:00 +26°C° 0 mm 2 mps 713 mmHg 80%
    02:00 +26°C° 0 mm 2 mps 712 mmHg 81%
    03:00 +26°C° 0.6 mm 2 mps 712 mmHg 82%
    04:00 +25°C° 0.6 mm 2 mps 712 mmHg 84%
    05:00 +25°C° 0.6 mm 3 mps 712 mmHg 85%
    06:00 +25°C° 0.3 mm 3 mps 713 mmHg 84%
    07:00 +26°C° 0.3 mm 3 mps 714 mmHg 82%
    08:00 +26°C° 0.3 mm 3 mps 715 mmHg 81%
    09:00 +26°C° 1.1 mm 4 mps 715 mmHg 77%
    10:00 +27°C° 1.1 mm 4 mps 715 mmHg 74%
    11:00 +28°C° 1.1 mm 5 mps 715 mmHg 70%
    12:00 +28°C° 0.3 mm 4 mps 714 mmHg 65%
    13:00 +29°C° 0.3 mm 3 mps 714 mmHg 60%
    14:00 +30°C° 0.3 mm 3 mps 713 mmHg 55%
    15:00 +30°C° 0 mm 3 mps 713 mmHg 57%
    16:00 +29°C° 0 mm 3 mps 712 mmHg 59%
    17:00 +29°C° 0 mm 2 mps 712 mmHg 61%
    18:00 +28°C° 0 mm 2 mps 712 mmHg 64%
    19:00 +28°C° 0 mm 2 mps 713 mmHg 67%
    20:00 +27°C° 0 mm 2 mps 713 mmHg 70%
    21:00 +27°C° 0 mm 2 mps 713 mmHg 71%
    22:00 +26°C° 0 mm 2 mps 713 mmHg 73%
    23:00 +26°C° 0 mm 2 mps 713 mmHg 74%

    25 August, Sunday

    Time Temperature Precipitation Wind Pressure Humidity
    00:00 +26°C° 0 mm 2 mps 713 mmHg 75%
    01:00 +26°C° 0 mm 2 mps 713 mmHg 75%
    02:00 +26°C° 0 mm 3 mps 713 mmHg 76%
    03:00 +26°C° 0 mm 3 mps 713 mmHg 77%
    04:00 +25°C° 0 mm 3 mps 713 mmHg 79%
    05:00 +25°C° 0 mm 3 mps 713 mmHg 80%
    06:00 +26°C° 0 mm 3 mps 713 mmHg 77%
    07:00 +26°C° 0 mm 3 mps 714 mmHg 75%
    08:00 +27°C° 0 mm 4 mps 714 mmHg 72%
    09:00 +28°C° 0 mm 3 mps 714 mmHg 69%
    10:00 +28°C° 0 mm 3 mps 714 mmHg 66%
    11:00 +29°C° 0 mm 2 mps 714 mmHg 63%
    12:00 +30°C° 0 mm 2 mps 714 mmHg 56%
    13:00 +32°C° 0 mm 1 mps 713 mmHg 50%
    14:00 +33°C° 0 mm 1 mps 712 mmHg 43%
    15:00 +34°C° 0 mm 2 mps 712 mmHg 46%
    16:00 +34°C° 0 mm 2 mps 711 mmHg 48%
    17:00 +33°C° 0 mm 3 mps 711 mmHg 51%
    18:00 +31°C° 0 mm 3 mps 711 mmHg 54%
    19:00 +31°C° 0 mm 3 mps 712 mmHg 58%
    20:00 +30°C° 0 mm 3 mps 712 mmHg 61%
    21:00 +29°C° 0.3 mm 2 mps 712 mmHg 64%
    22:00 +29°C° 0.3 mm 2 mps 713 mmHg 66%
    23:00 +28°C° 0.3 mm 2 mps 713 mmHg 68%

    26 August, Monday

    Time Temperature Precipitation Wind Pressure Humidity
    00:00 +28°C° 0.9 mm 2 mps 713 mmHg 71%
    01:00 +27°C° 0.9 mm 3 mps 712 mmHg 74%
    02:00 +27°C° 0.9 mm 3 mps 712 mmHg 77%
    03:00 +27°C° 0.7 mm 3 mps 712 mmHg 78%
    04:00 +26°C° 0.7 mm 3 mps 712 mmHg 79%
    05:00 +26°C° 0.7 mm 3 mps 713 mmHg 79%
    06:00 +26°C° 0.4 mm 4 mps 713 mmHg 78%
    07:00 +27°C° 0.4 mm 4 mps 714 mmHg 77%
    08:00 +27°C° 0.4 mm 4 mps 714 mmHg 75%
    09:00 +28°C° 0.2 mm 4 mps 714 mmHg 69%
    10:00 +29°C° 0.2 mm 4 mps 714 mmHg 63%
    11:00 +32°C° 0.2 mm 5 mps 714 mmHg 57%
    12:00 +31°C° 0 mm 3 mps 713 mmHg 54%
    13:00 +32°C° 0 mm 2 mps 713 mmHg 51%
    14:00 +32°C° 0 mm 1 mps 712 mmHg 48%
    15:00 +32°C° 0 mm 2 mps 712 mmHg 48%
    16:00 +33°C° 0 mm 3 mps 711 mmHg 48%
    17:00 +33°C° 0 mm 4 mps 711 mmHg 48%
    18:00 +32°C° 0 mm 4 mps 712 mmHg 52%
    19:00 +30°C° 0 mm 4 mps 712 mmHg 56%
    20:00 +29°C° 0 mm 3 mps 713 mmHg 60%
    21:00 +29°C° 0.2 mm 4 mps 713 mmHg 63%
    22:00 +28°C° 0.2 mm 4 mps 713 mmHg 66%
    23:00 +27°C° 0.2 mm 4 mps 713 mmHg 70%

    27 August, Tuesday

    Time Temperature Precipitation Wind Pressure Humidity
    00:00 +27°C° 0 mm 4 mps 713 mmHg 71%
    01:00 +27°C° 0 mm 4 mps 713 mmHg 73%
    02:00 +27°C° 0 mm 3 mps 712 mmHg 74%
    03:00 +27°C° 0.1 mm 3 mps 713 mmHg 75%
    04:00 +27°C° 0.1 mm 3 mps 713 mmHg 76%
    05:00 +26°C° 0.1 mm 3 mps 713 mmHg 77%
    06:00 +27°C° 0 mm 4 mps 714 mmHg 76%
    07:00 +27°C° 0 mm 4 mps 714 mmHg 74%
    08:00 +27°C° 0 mm 4 mps 714 mmHg 73%
    09:00 +28°C° 0 mm 4 mps 714 mmHg 69%
    10:00 +29°C° 0 mm 4 mps 715 mmHg 64%
    11:00 +30°C° 0 mm 5 mps 715 mmHg 59%
    12:00 +32°C° 0 mm 5 mps 714 mmHg 57%
    13:00 +32°C° 0 mm 4 mps 713 mmHg 55%
    14:00 +32°C° 0 mm 4 mps 713 mmHg 52%
    15:00 +31°C° 0.1 mm 3 mps 713 mmHg 52%
    16:00 +31°C° 0.1 mm 3 mps 713 mmHg 52%
    17:00 +31°C° 0.1 mm 2 mps 712 mmHg 53%
    18:00 +30°C° 0.2 mm 2 mps 713 mmHg 59%
    19:00 +29°C° 0.2 mm 3 mps 713 mmHg 65%
    20:00 +28°C° 0.2 mm 3 mps 713 mmHg 71%
    21:00 +28°C° 0 mm 3 mps 713 mmHg 71%
    22:00 +27°C° 0 mm 3 mps 713 mmHg 72%
    23:00 +27°C° 0 mm 3 mps 713 mmHg 73%
    Show more